Lid_Strength_Index
7 9 10 9 8 9 8 9 10 8 7 8 9 9 8 6 6 6 6 6 5 5 4 3 2 2 2 1 2 1 1 1 1 1 2 2 2 1 1 0 0 0 0 0
8 10 7 6 7 8 9 9 10 8 6 8 9 9 7 7 6 6 6 6 5 5 4 4 3 2 2 2 2 2 1 1 1 1 1 1 1 1 1 0 1 0 0 0
10 8 5 6 8 9 9 10 9 10 8 7 9 11 10 7 6 6 5 5 5 5 5 4 4 3 2 2 2 2 1 1 1 1 1 1 1 1 1 1 1 2 2 0
8 6 6 8 8 8 12 8 8 8 10 13 9 16 12 9 8 7 6 6 5 5 4 4 4 3 3 2 2 1 1 1 1 1 1 2 3 4 2 2 1 0 0 1
8 7 7 8 8 7 9 7 8 9 10 12 11 13 12 9 10 8 7 6 5 4 4 4 4 3 2 2 2 1 1 1 2 4 1 2 2 2 2 2 1 1 1 0
7 6 7 7 6 6 6 8 9 10 12 15 12 12 14 11 10 7 6 5 5 4 4 4 3 3 3 2 2 2 2 3 3 3 1 2 2 2 2 2 2 2 1 1
8 7 7 6 9 7 8 10 14 15 15 15 11 12 13 9 7 7 6 6 5 4 4 4 4 3 3 3 2 2 2 3 2 1 1 1 2 2 2 2 2 2 2 2
11 12 8 6 8 9 10 11 14 18 16 14 11 13 11 7 6 6 5 5 5 4 4 4 4 3 3 3 2 2 3 2 2 2 2 1 1 1 1 2 2 2 2 1
11 10 7 7 6 7 9 11 10 13 13 15 13 11 8 7 7 6 6 5 6 5 4 4 3 3 3 3 3 2 2 2 2 2 1 1 2 2 1 1 2 1 1 1
9 12 8 7 7 7 9 8 12 13 16 17 13 13 13 10 9 7 7 6 5 5 4 4 3 3 3 2 2 2 2 2 2 1 1 1 1 1 1 1 2 1 1 1
8 11 10 9 10 10 10 11 11 11 13 15 16 14 10 9 7 7 7 6 6 5 4 4 3 3 3 2 2 2 2 2 2 2 1 1 2 1 1 1 1 1 1 1
8 10 12 10 8 7 8 10 10 13 14 13 13 13 7 7 6 6 6 5 5 5 4 4 3 3 3 3 3 2 2 2 2 2 1 3 2 1 1 1 1 1 1 1
8 10 13 12 10 8 9 9 10 10 12 13 15 13 7 7 7 6 6 6 5 5 4 4 4 4 3 3 3 3 2 2 2 2 2 2 2 1 2 1 1 1 1 1
6 11 11 13 11 9 10 9 9 11 13 13 12 11 9 8 8 6 6 5 5 5 5 4 4 4 3 3 3 3 3 2 2 2 2 2 2 1 1 1 1 1 1 1
7 11 10 10 9 9 8 9 9 11 11 12 11 11 9 8 7 7 6 6 6 6 5 5 5 4 4 3 3 4 4 3 2 2 2 2 2 1 1 1 1 1 1 1
8 11 10 11 9 9 10 8 8 8 9 10 10 10 7 6 6 6 6 6 6 6 5 5 4 4 4 3 4 4 4 4 3 2 2 2 2 1 1 1 1 1 1 1
9 10 11 13 10 9 12 9 9 8 8 9 11 9 7 8 7 7 6 6 6 5 5 6 5 4 4 3 3 4 4 3 2 2 2 2 2 2 2 1 1 2 2 2
10 11 11 12 11 16 10 7 7 9 8 8 8 7 7 7 6 6 6 6 5 5 5 5 4 4 3 3 3 3 3 3 2 2 2 2 2 2 2 2 2 2 2 2
8 11 14 14 14 12 10 8 9 10 11 7 8 7 6 5 6 7 5 4 4 4 4 4 4 4 3 3 3 3 3 3 2 3 2 2 2 2 2 2 2 2 2 2
8 10 13 15 17 17 10 7 6 7 13 7 6 7 7 7 10 9 5 4 4 4 4 4 3 3 3 3 3 3 3 3 3 2 2 2 2 2 2 2 2 2 2 2
12 12 14 15 16 13 8 7 6 13 12 7 6 6 7 8 7 6 5 5 4 4 3 3 3 4 3 2 2 3 3 3 2 2 2 2 2 2 2 2 2 3 2 4
12 13 14 13 14 15 7 8 12 9 7 6 6 6 6 6 5 5 5 5 4 4 4 3 4 4 3 2 3 3 3 2 2 2 2 2 2 2 2 3 2 2 2 3
14 11 13 13 13 8 7 7 6 6 7 6 6 5 5 5 5 5 5 5 4 4 4 3 4 4 3 3 3 4 4 5 5 2 2 2 2 3 3 3 2 2 2 3
9 8 11 11 10 8 7 6 6 5 5 5 5 5 5 6 5 5 5 5 4 4 4 4 4 6 7 5 5 6 5 4 3 3 2 2 2 2 2 3 3 3 4 3
10 9 11 11 9 7 7 6 5 5 4 4 4 4 4 5 5 6 5 5 5 4 4 4 6 6 6 4 4 4 3 2 4 3 2 2 2 3 6 8 7 4 8 6
8 10 12 13 8 9 8 6 4 5 5 5 5 4 4 4 5 5 5 5 4 4 4 5 5 4 4 4 4 2 2 2 2 3 3 4 3 4 5 7 8 10 9 11